sat.trackr.live / text

‹ back to catalog

STARLINK-3512

NORAD 51743 · 2022-016AF

PAYLOAD ACTIVE UNKNOWN

§ Identity

Operator
Country
US
Launch date
2022-02-21
Launch site
AFETR
Launch vehicle
Mass (kg)
RCS (m²)

Purposes: comms

External: N2YO · Heavens-Above · Gunter

§ Orbital elements

Epoch: 2026-05-24T21:18:43.039296Z

Period
95.44 min
Inclination
53.2143°
Eccentricity
0.0001318
Mean motion
15.08839267 rev/d
Perigee alt
538.8 km
Apogee alt
540.7 km
Semi-major
6,917.9 km
B*
5.4934e-5
RAAN
326.9781°
Arg perigee
88.4962°
Mean anomaly
271.6181°
Rev number
23,520

§ Raw data

STARLINK-35121 51743U 22016AF  26144.88799814  .00000586  00000+0  54934-4 0  99992 51743  53.2143 326.9781 0001318  88.4962 271.6181 15.08839267235203

JSON: /api/v1/satellites/51743 · /tle

For live sub-satellite position, see the globe view (requires WebGL).

§ Visibility from observer

Set your observer location to see the next 7 days of passes ≥ 10°. The values pass through the URL so the page stays shareable.

No JS? Fill the form by hand. The geolocation button needs JavaScript.